Tracking 20242 objects as of 24-Jan-2020
HD Live streaming from Space Station
objects crossing your sky now

COSMOS 2251 DEB

Track COSMOS 2251 DEB now!
10-day predictions


NORAD ID: 33795
Int'l Code: 1993-036AL
Perigee: 627.1 km
Apogee: 737.9 km
Inclination: 74.0 °
Period: 98.3 minutes
Semi major axis: 7053 km
RCS: 0.0825 m2 (small)
Launch date: June 16, 1993
Source: Commonwealth of Independent States (former USSR) (CIS)
Launch site: PLESETSK MISSILE AND SPACE COMPLEX (PKMTR)

Note: This is SATELLITE DEBRIS
aabbcc
Your satellite tracking list
Your tracking list is empty




NASA's NSSDC Master Catalog

Two Line Element Set (TLE):
1 33795U 93036AL  20023.55352266 +.00000192 +00000-0 +39855-4 0  9995
2 33795 074.0472 316.4780 0078571 241.5793 292.3012 14.65542335583239
Source of the keplerian elements: AFSPC